WB3EGK Weather Reports


time (UTC)temp
C
wind
direction
speed
KPH
gust
KPH
rain 1hr
cm
rain 24hr
cm
rain mn
cm
humidity
%
barometer
mb
20260510000328 11 60 0.0 0.0 0.43 1.17 1.17 1 1005.7
20260509235825 11 323 3.2 3.2 0.89 1.14 1.14 1 1006.1
20260509235321 11 313 4.8 8.0 1.07 1.09 1.09 1 1005.6
20260509234817 11 323 9.7 11.3 1.68 0.99 0.99 1 1005.5
20260509234314 11 177 6.4 9.7 1.50 0.91 0.91 1 1005.5
20260509233812 12 319 16.1 20.9 0.30 0.71 0.71 1 1005.4
20260509233309 16 279 17.7 24.1 0.00 0.66 0.66 1 1004.9
20260509232805 17 246 4.8 4.8 0.00 0.66 0.66 1 1003.4
20260509232306 17 210 9.7 12.9 0.00 0.66 0.66 1 1002.8
20260509231759 17 221 12.9 16.1 0.00 0.66 0.66 1 1003.0
20260509231256 17 224 8.0 11.3 0.00 0.66 0.66 1 1003.0
20260509230754 17 240 9.7 11.3 0.00 0.66 0.66 1 1002.9
20260509230251 17 209 3.2 3.2 0.00 0.66 0.66 1 1002.8
20260509225745 17 215 4.8 4.8 0.00 0.66 0.66 1 1002.8
20260509225242 17 249 9.7 11.3 0.00 0.66 0.66 1 1002.7
20260509224738 17 216 8.0 12.9 0.00 0.66 0.66 1 1002.6
20260509224235 17 141 12.9 14.5 0.00 0.66 0.66 1 1002.8
20260509223732 17 220 11.3 16.1 0.00 0.66 0.66 1 1002.7
20260509223229 17 224 12.9 14.5 0.00 0.66 0.66 1 1002.6
20260509222726 17 204 11.3 17.7 0.00 0.66 0.66 1 1002.5
20260509222221 18 263 6.4 8.0 0.00 0.66 0.66 1 1002.4
20260509221717 18 298 11.3 14.5 0.00 0.66 0.66 1 1002.4
20260509221213 18 224 19.3 24.1 0.00 0.66 0.66 1 1002.3
20260509220709 18 227 8.0 12.9 0.00 0.66 0.66 1 1002.3
20260509220206 18 226 9.7 12.9 0.00 0.66 0.66 1 1002.3
20260509215701 18 233 9.7 11.3 0.00 0.66 0.66 1 1002.3
20260509215158 18 270 4.8 8.0 0.00 0.66 0.66 1 1002.5
20260509214656 18 249 12.9 16.1 0.00 0.66 0.66 1 1002.3
20260509214152 18 193 17.7 25.7 0.00 0.66 0.66 1 1002.4
20260509213649 18 220 19.3 27.4 0.00 0.66 0.66 1 1002.3
20260509213145 18 167 19.3 24.1 0.00 0.66 0.66 1 1002.4
20260509212643 18 201 8.0 9.7 0.00 0.66 0.66 1 1002.5
20260509212139 18 219 9.7 14.5 0.00 0.66 0.66 1 1002.6
20260509211635 18 220 22.5 25.7 0.00 0.66 0.66 1 1002.6
20260509211132 17 183 11.3 16.1 0.00 0.66 0.66 1 1002.6
20260509210629 18 220 8.0 12.9 0.00 0.66 0.66 1 1002.6
20260509210126 18 216 14.5 16.1 0.00 0.66 0.66 1 1002.4
20260509205621 18 253 12.9 14.5 0.00 0.66 0.66 1 1002.7
20260509205115 18 192 8.0 11.3 0.00 0.66 0.66 1 1002.7
20260509204612 17 203 17.7 20.9 0.00 0.66 0.66 1 1002.8
20260509204108 18 224 17.7 29.0 0.00 0.66 0.66 1 1002.8
20260509203604 18 232 11.3 12.9 0.00 0.66 0.66 1 1003.0
20260509203103 18 245 4.8 11.3 0.00 0.66 0.66 1 1003.3
20260509202557 18 288 6.4 12.9 0.00 0.66 0.66 1 1003.4
20260509202053 17 278 9.7 12.9 0.00 0.66 0.66 1 1003.4
20260509201547 17 209 4.8 11.3 0.00 0.66 0.66 1 1003.5
20260509201045 17 270 3.2 3.2 0.00 0.66 0.66 1 1003.5
20260509200539 18 199 9.7 11.3 0.00 0.66 0.66 1 1003.6
20260509200036 18 245 8.0 11.3 0.00 0.66 0.66 1 1003.6
20260509195531 18 235 6.4 12.9 0.00 0.66 0.66 1 1003.7
20260509195026 18 208 6.4 11.3 0.00 0.66 0.66 1 1003.6
20260509194521 17 227 17.7 20.9 0.00 0.66 0.66 1 1003.6
20260509194019 17 221 11.3 14.5 0.00 0.66 0.66 1 1003.7
20260509193519 17 222 12.9 14.5 0.00 0.66 0.66 1 1003.7
20260509193016 17 190 8.0 9.7 0.00 0.66 0.66 1 1003.8
20260509192512 17 173 8.0 9.7 0.00 0.66 0.66 1 1004.1
20260509192007 17 226 8.0 12.9 0.00 0.66 0.66 1 1003.9
20260509191502 17 284 6.4 9.7 0.00 0.66 0.66 1 1003.9
20260509190958 17 218 12.9 14.5 0.00 0.66 0.66 1 1003.9
20260509190455 17 262 1.6 3.2 0.00 0.66 0.66 1 1004.3
20260509185953 17 271 4.8 9.7 0.00 0.66 0.66 1 1004.1
20260509185450 17 241 11.3 12.9 0.00 0.66 0.66 1 1004.5
20260509184946 16 225 9.7 14.5 0.00 0.66 0.66 1 1004.4
20260509184445 17 221 16.1 17.7 0.00 0.66 0.66 1 1004.3
20260509183941 17 263 9.7 11.3 0.00 0.66 0.66 1 1004.4
20260509183435 17 250 4.8 4.8 0.00 0.66 0.66 1 1004.6
20260509182932 16 54 4.8 11.3 0.00 0.66 0.66 1 1004.5
20260509182428 16 235 14.5 14.5 0.00 0.66 0.66 1 1004.4
20260509181926 16 231 9.7 12.9 0.00 0.66 0.66 1 1004.4
20260509181424 16 196 14.5 17.7 0.00 0.66 0.66 1 1004.5
20260509180921 16 223 3.2 4.8 0.00 0.66 0.66 1 1004.2
20260509180416 16 221 9.7 11.3 0.00 0.66 0.66 1 1004.3
20260509175913 16 200 11.3 12.9 0.00 0.66 0.66 1 1004.3
20260509175409 15 231 11.3 12.9 0.00 0.66 0.66 1 1004.4
20260509174906 15 194 8.0 11.3 0.00 0.66 0.66 1 1004.4
20260509174402 16 244 11.3 12.9 0.00 0.66 0.66 1 1004.5
20260509173858 16 209 6.4 8.0 0.00 0.66 0.66 1 1004.7
20260509173358 15 202 8.0 9.7 0.00 0.66 0.66 1 1004.7
20260509172854 15 187 8.0 9.7 0.00 0.66 0.66 1 1004.9
20260509172351 13 281 4.8 8.0 0.00 0.66 0.66 1 1004.9
20260509171847 15 200 9.7 12.9 0.00 0.66 0.66 1 1005.0
20260509171343 15 297 6.4 8.0 0.00 0.66 0.66 1 1004.7
20260509170840 14 219 3.2 4.8 0.00 0.66 0.66 1 1004.9
20260509170335 13 205 8.0 9.7 0.00 0.66 0.66 1 1004.9
20260509165830 13 354 4.8 8.0 0.00 0.66 0.66 1 1005.1
20260509165325 13 219 11.3 12.9 0.00 0.66 0.66 1 1005.2
20260509164821 13 228 3.2 3.2 0.00 0.66 0.66 1 1005.3
20260509164318 13 207 4.8 8.0 0.00 0.66 0.66 1 1005.1
20260509163814 12 227 4.8 4.8 0.00 0.66 0.66 1 1005.4
20260509163310 12 206 6.4 9.7 0.00 0.66 0.66 1 1005.3
20260509162810 12 228 4.8 8.0 0.00 0.66 0.66 1 1005.2
20260509162306 12 219 4.8 8.0 0.00 0.66 0.66 1 1005.0
20260509161759 11 188 8.0 9.7 0.00 0.66 0.66 1 1005.4
20260509161255 11 128 1.6 3.2 0.00 0.66 0.66 1 1005.2
20260509160751 11 227 3.2 3.2 0.00 0.66 0.66 1 1005.3
20260509160247 11 219 4.8 4.8 0.00 0.66 0.66 1 1005.0
20260509155742 11 215 6.4 9.7 0.00 0.66 0.66 1 1005.1
20260509155239 11 264 1.6 1.6 0.00 0.66 0.66 1 1005.1
20260509154735 11 264 6.4 8.0 0.00 0.66 0.66 1 1005.1
20260509154232 10 256 4.8 4.8 0.00 0.66 0.66 1 1005.2
20260509153729 11 276 4.8 4.8 0.00 0.66 0.66 1 1004.9
20260509153220 11 188 1.6 1.6 0.00 0.66 0.66 1 1005.3
20260509152716 11 285 1.6 3.2 0.00 0.66 0.66 1 1005.2
20260509152213 10 285 1.6 1.6 0.00 0.66 0.66 1 1005.3
20260509151710 10 234 1.6 1.6 0.00 0.66 0.66 1 1005.2
20260509151207 10 207 3.2 4.8 0.00 0.66 0.66 1 1005.2
20260509150705 10 229 8.0 9.7 0.00 0.66 0.66 1 1005.2
20260509150203 10 274 4.8 4.8 0.00 0.66 0.66 1 1005.0
20260509145659 10 148 6.4 8.0 0.00 0.66 0.66 1 1005.2
20260509145154 10 223 8.0 9.7 0.00 0.66 0.66 1 1005.4
20260509144651 10 162 0.0 1.6 0.00 0.66 0.66 1 1005.3
20260509144148 10 192 4.8 4.8 0.00 0.66 0.66 1 1005.3
20260509143645 10 289 6.4 8.0 0.00 0.66 0.66 1 1005.2
20260509143143 10 290 3.2 3.2 0.00 0.66 0.66 1 1005.2
20260509142638 10 230 4.8 4.8 0.00 0.66 0.66 1 1005.2
20260509142135 10 228 3.2 3.2 0.00 0.66 0.66 1 1005.3
20260509141631 10 280 6.4 9.7 0.00 0.66 0.66 1 1005.2
20260509141127 10 210 3.2 3.2 0.00 0.66 0.66 1 1005.3
20260509140624 10 132 8.0 12.9 0.00 0.66 0.66 1 1005.2
20260509140122 10 241 4.8 4.8 0.00 0.66 0.66 1 1005.3
20260509135619 10 227 4.8 4.8 0.00 0.66 0.66 1 1004.9
20260509135117 10 247 4.8 4.8 0.00 0.66 0.66 1 1005.0
20260509134613 10 216 4.8 4.8 0.00 0.66 0.66 1 1005.1
20260509134111 10 70 0.0 1.6 0.00 0.66 0.66 1 1005.4
20260509133608 10 212 3.2 3.2 0.00 0.66 0.66 1 1005.2
20260509133105 10 183 8.0 9.7 0.00 0.66 0.66 1 1005.3
20260509132603 10 217 6.4 8.0 0.00 0.66 0.66 1 1005.3
20260509132102 10 192 9.7 12.9 0.00 0.66 0.66 1 1005.2
20260509131557 9 252 3.2 3.2 0.00 0.66 0.66 1 1005.3
20260509131054 9 206 1.6 1.6 0.00 0.66 0.66 1 1005.3
20260509130550 9 260 4.8 4.8 0.00 0.66 0.66 1 1005.3
20260509130047 9 208 6.4 8.0 0.00 0.66 0.66 1 1005.4
20260509125543 9 220 6.4 8.0 0.00 0.66 0.66 1 1005.4
20260509125041 9 266 4.8 4.8 0.00 0.66 0.66 1 1005.5
20260509124536 9 247 4.8 8.0 0.00 0.66 0.66 1 1005.4
20260509124034 9 209 4.8 8.0 0.00 0.66 0.66 1 1005.5
20260509123532 9 203 3.2 3.2 0.00 0.66 0.66 1 1005.7
20260509123027 9 218 4.8 4.8 0.00 0.66 0.66 1 1005.6
20260509122524 9 220 4.8 8.0 0.00 0.66 0.66 1 1005.8
20260509122021 9 201 4.8 4.8 0.00 0.66 0.66 1 1005.7
20260509121518 9 148 1.6 1.6 0.00 0.66 0.66 1 1005.6
20260509121016 9 219 4.8 4.8 0.00 0.66 0.66 1 1005.8
20260509120514 9 227 4.8 8.0 0.00 0.66 0.66 1 1005.5
20260509120012 9 212 4.8 4.8 0.00 0.66 0.66 1 1005.7
20260509115508 9 231 6.4 8.0 0.00 0.66 0.66 1 1005.8
20260509115006 8 215 1.6 1.6 0.00 0.66 0.66 1 1005.6
20260509114504 8 195 6.4 8.0 0.00 0.66 0.66 1 1005.7
20260509114003 8 173 4.8 4.8 0.00 0.66 0.66 1 1005.8
20260509113500 8 239 4.8 4.8 0.00 0.66 0.66 1 1005.7
20260509112957 8 244 6.4 9.7 0.00 0.66 0.66 1 1005.6
20260509112454 8 112 1.6 3.2 0.00 0.66 0.66 1 1005.7
20260509111950 8 208 3.2 3.2 0.00 0.66 0.66 1 1005.6
20260509111448 8 142 3.2 3.2 0.00 0.66 0.66 1 1005.6
20260509110946 8 170 3.2 4.8 0.00 0.66 0.66 1 1005.4
20260509110442 8 190 6.4 9.7 0.00 0.66 0.66 1 1005.5
20260509105939 8 102 0.0 0.0 0.00 0.66 0.66 1 1005.5
20260509105438 8 205 4.8 8.0 0.00 0.66 0.66 1 1005.6
20260509104935 8 230 3.2 3.2 0.00 0.66 0.66 1 1005.5
20260509104431 8 201 6.4 9.7 0.00 0.66 0.66 1 1005.6
20260509103928 8 193 3.2 3.2 0.00 0.66 0.66 1 1005.5
20260509103426 8 232 4.8 8.0 0.00 0.66 0.66 1 1005.6
20260509102924 8 203 0.0 0.0 0.18 0.66 0.66 1 1005.7
20260509102421 8 210 3.2 3.2 0.18 0.66 0.66 1 1005.4
20260509101917 8 210 3.2 3.2 0.00 0.64 0.64 1 1005.4
20260509101414 8 222 8.0 11.3 0.13 0.64 0.64 1 1005.5
20260509100911 8 209 6.4 8.0 0.13 0.64 0.64 1 1005.6
20260509100408 8 193 0.0 0.0 0.00 0.61 0.61 1 1005.7
20260509095905 8 144 1.6 3.2 0.00 0.61 0.61 1 1005.7
20260509095402 8 221 6.4 8.0 0.00 0.61 0.61 1 1005.5
20260509094859 8 214 4.8 8.0 0.00 0.61 0.61 1 1005.8
20260509094355 8 218 4.8 4.8 0.18 0.61 0.61 1 1005.8
20260509093854 8 232 8.0 11.3 0.18 0.61 0.61 1 1005.9
20260509093350 8 252 3.2 3.2 0.00 0.58 0.58 1 1005.9
20260509092849 8 207 4.8 4.8 0.00 0.58 0.58 1 1005.9
20260509092346 8 169 4.8 8.0 0.13 0.58 0.58 1 1005.8
20260509091844 8 214 6.4 8.0 0.13 0.58 0.58 1 1005.9
20260509091341 8 232 11.3 14.5 0.00 0.56 0.56 1 1006.1
20260509090838 8 224 3.2 3.2 0.00 0.56 0.56 1 1006.0
20260509090336 8 232 1.6 3.2 0.00 0.56 0.56 1 1005.8
20260509085833 8 211 3.2 3.2 0.18 0.56 0.56 1 1005.8
20260509085330 8 205 4.8 8.0 0.18 0.56 0.56 1 1005.8
20260509084826 8 223 4.8 4.8 0.00 0.53 0.53 1 1005.9
20260509084323 8 208 4.8 4.8 0.18 0.53 0.53 1 1006.1
20260509083821 8 195 4.8 4.8 0.18 0.53 0.53 1 1006.0
20260509083317 8 174 4.8 4.8 0.13 0.51 0.51 1 1006.1
20260509082814 8 218 6.4 8.0 0.13 0.51 0.51 1 1006.2
20260509082310 8 225 3.2 4.8 0.00 0.48 0.48 1 1006.0
20260509081808 8 213 9.7 11.3 0.00 0.48 0.48 1 1006.0
20260509081305 8 220 4.8 4.8 0.00 0.48 0.48 1 1006.1
20260509080803 8 226 4.8 4.8 0.18 0.48 0.48 1 1005.9
20260509080301 8 166 4.8 4.8 0.61 0.48 0.48 1 1006.0
20260509075759 8 181 3.2 3.2 0.61 0.46 0.46 1 1006.1
20260509075255 8 198 3.2 3.2 0.48 0.38 0.38 1 1006.0
20260509074752 8 181 6.4 8.0 0.43 0.36 0.36 1 1006.0
20260509074250 8 209 4.8 4.8 0.13 0.30 0.30 1 1005.8
20260509073746 8 180 3.2 4.8 0.00 0.28 0.28 1 1006.0
20260509073243 8 224 3.2 4.8 0.00 0.28 0.28 1 1005.8
20260509072739 8 230 3.2 4.8 0.18 0.28 0.28 1 1005.9
20260509072236 8 146 1.6 3.2 0.18 0.28 0.28 1 1006.0
20260509071733 8 225 3.2 3.2 0.00 0.25 0.25 1 1006.2
20260509071230 8 227 4.8 4.8 0.00 0.25 0.25 1 1006.0
20260509070727 8 200 3.2 3.2 0.00 0.25 0.25 1 1006.1
20260509070224 8 204 4.8 4.8 0.18 0.25 0.25 1 1005.9
20260509065720 8 221 4.8 4.8 0.18 0.25 0.25 1 1005.9
20260509065216 8 167 1.6 1.6 0.00 0.23 0.23 1 1006.1
20260509064712 8 164 3.2 3.2 0.00 0.23 0.23 1 1006.3
20260509064210 8 182 3.2 3.2 0.13 0.23 0.23 1 1006.3
20260509063708 8 235 8.0 9.7 0.13 0.23 0.23 1 1006.3
20260509063204 8 172 4.8 4.8 0.00 0.20 0.20 1 1006.4
20260509062701 8 175 3.2 3.2 0.00 0.20 0.20 1 1006.8
20260509062158 8 304 4.8 8.0 0.18 0.20 0.20 1 1006.8
20260509061655 8 203 4.8 8.0 0.18 0.20 0.20 1 1006.7
20260509061153 8 200 6.4 8.0 0.00 0.18 0.18 1 1006.9
20260509060650 8 210 8.0 9.7 0.13 0.18 0.18 1 1006.9
20260509060146 8 223 4.8 4.8 0.30 0.18 0.18 1 1007.0
20260509055642 8 182 4.8 4.8 0.48 0.15 0.15 1 1007.2
20260509055138 8 192 6.4 8.0 0.30 0.13 0.13 1 1007.2
20260509054635 8 204 4.8 8.0 0.00 0.08 0.08 1 1007.2
20260509054132 8 213 8.0 9.7 0.13 0.08 0.08 1 1007.2
20260509053631 8 204 6.4 8.0 0.13 0.08 0.08 1 1007.3
20260509053127 8 205 8.0 11.3 0.00 0.05 0.05 1 1007.3
20260509052625 8 257 3.2 3.2 0.00 0.05 0.05 1 1007.5
20260509052122 8 190 11.3 12.9 0.00 0.05 0.05 1 1007.7
20260509051620 8 222 3.2 4.8 0.00 0.05 0.05 1 1007.5
20260509051117 8 210 4.8 8.0 0.00 0.05 0.05 1 1007.6
20260509050614 8 181 4.8 4.8 0.00 0.05 0.05 1 1007.7
20260509050110 8 210 4.8 4.8 0.30 0.05 0.05 1 1007.9
20260509045608 8 182 6.4 8.0 0.30 0.05 0.05 1 1007.9
20260509045105 8 204 6.4 9.7 0.00 0.00 0.00 1 1008.0
20260509044602 8 229 8.0 9.7 0.00 0.00 0.00 1 1008.1
20260509044059 8 176 6.4 8.0 0.00 0.00 0.00 1 1008.2
20260509043556 8 200 4.8 8.0 0.00 0.00 0.00 1 1008.1
20260509043051 8 210 4.8 8.0 0.00 0.00 0.00 1 1008.0
20260509042548 8 159 1.6 3.2 0.00 0.00 0.00 1 1007.8
20260509042044 8 166 4.8 4.8 0.00 0.00 0.00 1 1008.0
20260509041541 8 132 3.2 3.2 0.00 0.00 0.00 1 1008.2
20260509041039 8 170 3.2 4.8 0.00 0.00 0.00 1 1007.9
20260509040537 8 138 1.6 3.2 0.00 0.00 0.00 1 1008.1
20260509040033 8 217 4.8 8.0 0.18 0.00 0.00 1 1008.4
20260509035530 8 188 8.0 11.3 0.18 1.27 1.27 1 1008.2
20260509035027 8 122 4.8 8.0 0.00 1.24 1.24 1 1008.2
20260509034525 8 206 1.6 3.2 0.00 1.24 1.24 1 1008.1
20260509034022 8 154 3.2 3.2 0.00 1.24 1.24 1 1008.3
20260509033518 8 212 4.8 8.0 0.00 1.24 1.24 1 1008.2
20260509033016 8 233 4.8 4.8 0.00 1.24 1.24 1 1008.4
20260509032513 8 187 6.4 8.0 0.00 1.24 1.24 1 1008.4
20260509032010 8 225 6.4 8.0 0.13 1.24 1.24 1 1008.3
20260509031507 8 155 4.8 8.0 0.13 1.24 1.24 1 1008.6
20260509031004 8 222 4.8 4.8 0.00 1.22 1.22 1 1008.6
20260509030502 8 282 4.8 8.0 0.00 1.22 1.22 1 1008.5
20260509025953 8 209 4.8 4.8 0.00 1.22 1.22 1 1008.6
20260509025449 8 224 4.8 8.0 0.00 1.22 1.22 1 1008.7
20260509024944 8 186 4.8 4.8 0.00 1.22 1.22 1 1008.4
20260509024441 8 217 4.8 4.8 0.00 1.22 1.22 1 1008.6
20260509023938 8 205 8.0 9.7 0.00 1.22 1.22 1 1008.7
20260509023435 8 199 4.8 8.0 0.18 1.22 1.22 1 1008.8
20260509022932 8 209 4.8 4.8 0.18 1.22 1.22 1 1008.5
20260509022429 8 193 3.2 4.8 0.00 1.19 1.19 1 1008.9
20260509021926 8 210 3.2 3.2 0.18 1.19 1.19 1 1009.0
20260509021423 8 218 4.8 4.8 0.30 1.19 1.19 1 1009.0
20260509020920 8 263 3.2 3.2 0.30 1.17 1.17 1 1009.1
20260509020419 8 273 1.6 1.6 0.30 1.14 1.14 1 1009.1
20260509015915 8 238 4.8 4.8 0.30 1.12 1.12 1 1008.9
20260509015414 8 142 0.0 0.0 0.18 1.09 1.09 1 1008.7
20260509014910 8 170 0.0 0.0 0.30 1.07 1.07 1 1008.8
20260509014407 8 142 0.0 1.6 0.30 1.04 1.04 1 1009.0
20260509013903 8 207 1.6 1.6 0.43 1.02 1.02 1 1008.8
20260509013400 8 190 1.6 1.6 0.48 0.99 0.99 1 1008.8
20260509012856 8 217 4.8 4.8 0.30 0.94 0.94 1 1008.7
20260509012353 8 201 1.6 3.2 0.48 0.91 0.91 1 1008.7
20260509011850 8 228 3.2 3.2 0.66 0.89 0.89 1 1008.6
20260509011348 8 181 0.0 0.0 0.43 0.84 0.84 1 1008.7
20260509010845 8 135 0.0 0.0 0.43 0.79 0.79 1 1008.7
20260509010343 8 156 1.6 1.6 0.48 0.76 0.76 1 1008.6
20260509005839 8 195 1.6 1.6 0.43 0.74 0.74 1 1008.4
20260509005338 8 160 0.0 1.6 0.30 0.69 0.69 1 1008.4
20260509004837 8 245 4.8 4.8 0.30 0.66 0.66 1 1008.3
20260509004334 8 67 0.0 0.0 0.30 0.64 0.64 1 1008.2
20260509003832 8 207 0.0 0.0 0.30 0.61 0.61 1 1008.3
20260509003329 8 215 3.2 3.2 0.13 0.58 0.58 1 1008.3
20260509002826 8 213 1.6 1.6 0.18 0.56 0.56 1 1008.1
20260509002324 8 164 0.0 0.0 0.18 0.56 0.56 1 1007.9
20260509001822 8 151 3.2 3.2 0.00 0.53 0.53 1 1008.2
20260509001317 8 172 4.8 8.0 0.00 0.53 0.53 1 1008.1
20260509000815 9 207 3.2 3.2 0.00 0.53 0.53 1 1008.2